Lid_Strength_Index
7 9 11 9 8 8 9 10 10 9 8 9 9 9 8 7 6 6 6 6 6 5 4 3 3 3 2 1 1 1 1 1 0 1 1 1 1 0 1 1 0 0 2 1
8 10 8 7 8 9 9 10 10 8 8 10 9 10 8 7 7 6 6 6 5 5 4 4 3 3 3 3 2 2 2 2 2 2 1 1 1 1 1 1 3 2 3 2
9 9 7 8 9 10 9 10 10 10 9 9 10 10 9 7 6 6 6 5 5 5 5 4 3 4 3 4 3 3 3 3 3 2 2 2 2 2 3 2 3 5 5 4
9 8 9 9 10 9 11 8 9 10 11 13 10 14 10 9 8 7 6 6 5 5 4 4 4 3 4 3 3 3 3 3 3 3 3 3 3 4 4 4 4 6 6 6
10 9 9 10 9 8 10 9 9 10 11 11 11 13 11 9 10 8 7 5 5 4 4 4 4 4 3 3 3 3 3 4 4 3 3 3 4 3 3 3 4 6 8 7
8 8 8 8 9 8 8 9 9 9 10 15 12 12 12 10 9 8 7 6 5 5 4 4 4 4 4 3 3 3 4 4 4 3 3 3 4 3 3 3 5 7 8 9
9 9 8 8 10 9 9 10 14 14 15 16 11 13 12 9 8 8 7 7 6 6 5 5 5 6 6 5 5 4 4 5 4 4 4 4 4 3 3 4 5 8 10 10
12 13 10 8 9 10 10 10 13 18 16 14 13 15 12 8 7 7 7 6 6 6 6 5 5 5 5 6 6 5 5 5 5 5 4 4 4 4 3 4 5 5 7 8
12 12 9 8 8 8 10 12 9 12 14 15 13 11 9 8 9 8 8 7 7 6 5 5 5 5 5 6 6 6 6 6 5 5 5 5 4 4 4 4 5 6 6 7
11 13 11 10 9 8 9 8 12 12 18 18 15 13 13 10 9 8 8 7 6 6 5 5 5 5 6 6 6 6 6 6 6 5 5 5 5 5 4 5 5 6 7 8
10 12 13 12 12 12 11 12 11 11 12 16 17 14 9 9 8 8 7 6 7 6 6 5 5 6 6 6 6 6 6 6 6 6 5 6 6 5 5 6 6 6 7 9
9 11 14 13 10 9 10 11 11 13 14 13 13 14 8 8 8 7 7 6 6 7 6 6 6 6 7 7 6 6 6 6 6 6 6 6 6 6 6 6 7 8 10 13
10 12 16 14 11 11 12 11 11 11 12 15 17 14 8 7 7 7 7 6 6 6 5 6 6 7 6 6 6 6 6 6 6 6 7 7 7 7 8 8 9 11 12 14
8 12 14 16 12 10 13 12 11 12 14 14 13 13 10 9 8 7 7 6 6 6 6 5 5 6 6 6 6 7 7 6 7 7 7 8 7 7 8 8 10 12 13 15
10 15 13 12 11 11 11 11 11 12 12 14 13 12 10 9 8 7 7 6 7 6 6 6 6 5 5 6 7 7 7 7 7 7 8 8 8 8 8 9 10 12 13 15
9 14 12 14 11 11 13 12 11 11 11 11 10 11 7 7 6 7 6 6 6 6 6 6 5 5 6 6 7 7 7 8 7 8 8 8 9 10 11 12 13 14 15 16
11 13 14 17 12 13 16 13 12 11 10 10 13 9 7 7 7 7 6 5 6 6 6 6 5 5 5 6 7 7 7 8 8 9 10 11 11 12 13 14 15 15 16 16
11 12 13 16 14 20 12 8 9 10 10 9 9 8 7 7 6 5 5 5 5 5 5 5 5 5 5 6 6 7 8 9 10 11 11 12 12 13 13 14 15 15 15 16
8 11 14 16 17 14 12 10 10 11 11 7 9 8 7 6 6 6 4 4 5 5 5 7 7 8 8 8 8 10 11 11 11 12 12 12 12 13 14 14 15 15 15 16
9 9 13 14 18 19 12 9 8 8 14 9 9 9 9 7 11 8 6 7 7 7 8 9 9 9 10 10 12 12 12 12 12 12 12 12 13 13 14 14 15 15 15 16
13 13 15 15 17 14 9 8 7 15 13 10 10 10 9 10 8 8 7 7 7 8 10 10 11 12 13 13 13 13 13 14 13 13 14 14 13 14 13 14 14 15 16 17
12 13 14 14 16 18 7 8 13 10 8 9 9 9 10 9 10 9 9 9 10 10 11 12 13 14 14 14 14 14 14 14 14 14 14 14 14 14 14 14 15 15 16 17
13 11 12 12 12 8 7 7 6 6 8 8 9 8 9 10 11 10 10 11 11 12 13 14 15 15 15 15 15 14 15 15 15 15 15 14 14 14 14 15 15 16 16 17
9 8 10 10 9 8 7 7 6 7 7 7 8 8 9 10 10 11 12 12 13 13 14 14 15 16 17 16 15 15 15 15 15 15 15 15 15 14 14 14 14 15 15 16
8 8 9 10 9 7 6 6 5 5 6 7 8 9 10 10 11 11 11 12 13 14 14 15 16 17 17 16 16 15 14 14 14 15 14 14 13 14 14 14 14 14 14 14
8 9 10 11 7 7 7 5 5 6 5 6 8 9 10 11 11 11 12 13 13 14 15 16 17 17 18 17 17 16 15 14 14 14 14 13 13 13 13 14 14 12 13 13